Regional Weather Roundup
Issued by NWS

Home | Current Version | Previous Version | Graphics & Text | Print | Product List | Glossary Off
Versions: 1 2 3 4 5 6 7 8 9 10 11 12 13 14 15 16 17 18 19 20 21 22 23 24 25 26 27 28 29 30 31 32 33 34 35 36 37 38 39 40 41 42 43 44 45 46 47 48 49 50

000
ASUS43 KDMX 200401
RWRIA

WEATHER ROUNDUP FOR IOWA
NATIONAL WEATHER SERVICE DES MOINES IA
1000 PM CST FRI JAN 19 2018

NOTE: "FAIR" INDICATES FEW OR NO CLOUDS BELOW 12,000 FEET WITH NO
SIGNIFICANT WEATHER AND/OR OBSTRUCTIONS TO VISIBILITY.

* - THESE STATIONS ARE NOT NWS STATIONS...THUS NOT UNDER NWS
QUALITY CONTROL.  THEY ALSO DO NOT REPORT WEATHER SUCH
AS PRECIPITATION OR FOG.

IAZ001>003-012>014-020>022-031>034-043>046-200500-
   NORTHWEST IOWA

CITY           SKY/WX    TMP DP  RH WIND       PRES   REMARKS
CARROLL *      PTCLDY    37  30  75 W8        29.73R WCI  31
CHEROKEE *     PTCLDY    31  30  94 CALM      29.73R
DENISON *      PTCLDY    36  28  75 SW6       29.75R WCI  31
LE MARS *      PTCLDY    34  30  86 CALM      29.73S
ORANGE CITY *  CLOUDY    34  32  93 NW7       29.73R WCI  28
SHELDON *      CLOUDY    32  32 100 CALM      29.71R
SIOUX CITY     CLOUDY    35  30  82 W6        29.75R WCI  30
SPENCER        CLOUDY    33  29  85 W8        29.71R WCI  26
STORM LAKE *   CLOUDY    34  28  80 W9        29.72R WCI  26
$$

IAZ055>058-069>071-079>083-090>094-200500-
   SOUTHWEST IOWA

CITY           SKY/WX    TMP DP  RH WIND       PRES   REMARKS
ATLANTIC *     CLOUDY    32  32 100 SW8       29.76R WCI  25
AUDUBON *      CLOUDY    37  30  75 SW7       29.75R WCI  32
CLARINDA *     CLOUDY    34  30  86 S5        29.80  WCI  30
COUNCIL BLFS * CLOUDY    39  30  70 SW10      29.74F WCI  32
CRESTON *      CLOUDY    36  28  75 SW13      29.77S WCI  27
HARLAN  *      PTCLDY    36  30  80 S8        29.77S WCI  29
LAMONI         CLOUDY    36  26  67 SW9       29.79R WCI  29
RED OAK *      CLOUDY    32  30  93 SW5       29.77S WCI  27
SHENANDOAH *   CLOUDY    34  30  86 S5        29.78S WCI  30
$$

IAZ047>049-059>061-072>074-084-200500-
   CENTRAL IOWA

CITY           SKY/WX    TMP DP  RH WIND       PRES   REMARKS
AMES           CLOUDY    37  31  78 SW10      29.74R WCI  30
ANKENY *       MOCLDY    41  28  60 SW12      29.76R
BOONE *        PTCLDY    36  30  80 SW7       29.73R WCI  30
CHARITON *     CLOUDY    39  28  65 SW10      29.78R WCI  32
DES MOINES     CLOUDY    40  28  62 SW9       29.76R WCI  34
GRINNELL*      CLOUDY    37  28  70 SW14      29.76R WCI  29
KNOXVILLE *    CLOUDY    39  27  60 SW10      29.76S WCI  32
MARSHALLTOWN   CLOUDY    37  29  72 SW10      29.73R WCI  30
NEWTON *       CLOUDY    39  28  65 SW12      29.76R WCI  32
PELLA *        CLOUDY    39  28  63 SW8       29.78S WCI  34
PERRY *          N/A     35  29  80 SW8       29.74R WCI  28
$$

IAZ004>006-015-016-023>025-035-036-200500-
   NORTH CENTRAL IOWA

CITY           SKY/WX    TMP DP  RH WIND       PRES   REMARKS
ALGONA *       CLOUDY    34 N/A N/A SW5       29.70R WCI  30
CLARION *      PTCLDY    34  34 100 SW8       29.71R WCI  27
ESTHERVILLE    PTCLDY    32  31  96 NW5       29.69R WCI  27
FORT DODGE *   CLOUDY    35  29  78 W8        29.73R WCI  29
MASON CITY     MOCLDY    35  30  82 W7        29.71R WCI  29
FOREST CITY *    N/A     34  32  93 CALM      29.70R
WEBSTER CITY * CLOUDY    34  30  86 SW7       29.71R WCI  28
IOWA FALLS *     N/A     37  32  83 SW10      29.73R WCI  29
$$

IAZ007>011-017>019-026>030-037>042-050>054-066-200500-
   NORTHEAST IOWA

CITY           SKY/WX    TMP DP  RH WIND       PRES   REMARKS
CEDAR RAPIDS     N/A     38  29  70 SW13      29.73S WCI  30
CHARLES CITY *   N/A     36  36 100 SW8       29.70R WCI  29
DECORAH *        N/A     37  30  75 VRB5      29.68R WCI  34
DUBUQUE          N/A     37  27  67 SW13      29.71R WCI  29
MONTICELLO *     N/A     39  28  65 SW7       29.73R WCI  34
OELWEIN *        N/A     36  34  93 SW7       29.71R WCI  30
WATERLOO         N/A     38  29  70 W13       29.72R WCI  30
$$

IAZ064-065-067-068-078-200500-
   EAST CENTRAL IOWA

CITY           SKY/WX    TMP DP  RH WIND       PRES   REMARKS
DAVENPORT        N/A     42  28  57 SW15      29.78R
IOWA CITY        N/A     39  28  64 SW6       29.78S WCI  35
MT. PLEASANT * PTCLDY    37  28  70 SW12      29.80R WCI  30
MUSCATINE *      N/A     39  28  65 S5        29.80R
QUAD CITIES      N/A     41  28  60 SW10      29.77R
$$

IAZ062-063-075>077-085>089-095>099-200500-
   SOUTHEAST IOWA

CITY           SKY/WX    TMP DP  RH WIND       PRES   REMARKS
BURLINGTON     CLOUDY    40  27  59 SW13      29.80R WCI  32
FAIRFIELD *    PTCLDY    41  28  60 SW10G16   29.79R
FORT MADISON * CLOUDY    43  28  56 SW14      29.82R
KEOKUK *       CLOUDY    41  28  60 SW9       29.82R
OSKALOOSA *      N/A     37  29  72 SW10      29.79R WCI  30
OTTUMWA        CLOUDY    41  28  60 SW14      29.78R
WASHINGTON *   CLOUDY    39  30  70 SW13      29.79R WCI  32
$$

ABBREVIATIONS USED IN REMARKS
   TC - TEMPERATURES IN CELSIUS
  WCI - WIND CHILL INDEX
   HX - HEAT INDEX
  VSB - VISIBILITY
$$





USA.gov is the U.S. government's official web portal to all federal, state and local government web resources and services.